Antalya, Turkey

12:16 AM +03 on October 19, 2017 (GMT +0300)
Antalya

Weather History for LTAI - January, 2013

Change the Weather History Date:

Friday, January 18, 2013

  Actual Average Record
Temperature  
Mean Temperature 55 °F -  
Max Temperature 59 °F 59 °F 66 °F (2011)
Min Temperature 51 °F 43 °F 32 °F (2012)
Degree Days  
Heating Degree Days 10    
Growing Degree Days 5 (Base 50)    
Moisture  
Dew Point 50 °F    
Average Humidity 75    
Maximum Humidity 94    
Minimum Humidity 61    
Precipitation  
Precipitation 0.79 in 0.28 in - ()
Sea Level Pressure  
Sea Level Pressure 29.94 in    
Wind  
Wind Speed 11 mph ()    
Max Wind Speed 26 mph    
Max Gust Speed 44 mph    
Visibility 5.7 miles    
Events Rain , Thunderstorm    
Averages and records for this station are not official NWS values.
T = Trace of Precipitation, MM = Missing Value Source: Averaged Metar Reports

Daily Weather History Graph

Daily Weather History Graph

Search for Another Location

Airport or City:

Trip Planner

Search our weather history database for the weather conditions in past years. The results will help you decide how hot, cold, wet, or windy it might be!

Date:

Astronomy

Jan. 18, 2013 Rise Set
Actual Time 7:08 AM EET 5:07 PM EET
Civil Twilight 6:39 AM EET 5:35 PM EET
Nautical Twilight 6:08 AM EET 6:07 PM EET
Astronomical Twilight 5:37 AM EET 6:38 PM EET
Moon 10:47 AM EET No Moon Set
Length of Visible Light 10h 55m
Length of Day
9h 59m
Waxing Crescent, 44% of the Moon is Illuminated
Jan 18
Waxing Crescent
Jan 19
First Quarter
Jan 27
Full
Feb 3
Last Quarter
Feb 10
New

Hourly Weather History & Observations

Time (EET) Temp. Dew Point Humidity Pressure Visibility Wind Dir Wind Speed Gust Speed Precip Events Conditions
12:20 AM 59.0 °F 50.0 °F 72% 30.04 in 6.2 mi South 9.2 mph - N/A Rain Light Rain Showers
12:50 AM 59.0 °F 50.0 °F 72% 30.04 in 6.2 mi South 10.4 mph - N/A Rain Light Rain Showers
1:20 AM 59.0 °F 48.2 °F 67% 30.04 in 6.2 mi South 9.2 mph - N/A Rain Light Rain Showers
1:50 AM 57.2 °F 50.0 °F 77% 30.04 in 6.2 mi South 10.4 mph - N/A Rain Light Rain Showers
2:00 AM 58 °F 49 °F 65% 30.03 in 6 mi South 10.4 mph - - Rain Light Rain Showers
2:20 AM 57.2 °F 50.0 °F 77% 30.04 in 6.2 mi South 9.2 mph - N/A Rain Light Rain Showers
2:50 AM 57.2 °F 48.2 °F 72% 30.04 in 6.2 mi South 10.4 mph - N/A   Mostly Cloudy
3:20 AM 57.2 °F 48.2 °F 72% 30.01 in 6.2 mi South 9.2 mph - N/A   Mostly Cloudy
3:50 AM 59.0 °F 46.4 °F 63% 30.01 in 6.2 mi South 10.4 mph - N/A   Mostly Cloudy
4:20 AM 59.0 °F 46.4 °F 63% 30.01 in 6.2 mi South 9.2 mph - N/A   Mostly Cloudy
4:50 AM 59.0 °F 46.4 °F 63% 30.01 in 6.2 mi SSE 6.9 mph - N/A   Mostly Cloudy
5:20 AM 57.2 °F 46.4 °F 67% 30.01 in 6.2 mi SE 4.6 mph - N/A   Mostly Cloudy
5:50 AM 59.0 °F 46.4 °F 63% 30.01 in 6.2 mi SSE 6.9 mph - N/A   Mostly Cloudy
6:20 AM 59.0 °F 46.4 °F 63% 30.01 in 6.2 mi South 8.1 mph - N/A   Mostly Cloudy
6:50 AM 59.0 °F 46.4 °F 63% 30.01 in 6.2 mi SSE 6.9 mph - N/A   Mostly Cloudy
7:20 AM 57.2 °F 48.2 °F 72% 30.01 in 6.2 mi SW 6.9 mph - N/A   Mostly Cloudy
7:50 AM 57.2 °F 48.2 °F 72% 30.01 in 6.2 mi SW 8.1 mph - N/A   Mostly Cloudy
8:00 AM 57 °F 47 °F 61% 30.00 in 6 mi SW 8.1 mph - -   Partly Cloudy
8:20 AM 55.4 °F 46.4 °F 72% 30.01 in 6.2 mi SSW 8.1 mph - N/A Rain Light Rain Showers
8:50 AM 55.4 °F 48.2 °F 77% 30.01 in 6.2 mi SSW 8.1 mph - N/A Rain Light Rain Showers
9:20 AM 55.4 °F 48.2 °F 77% 30.01 in 6.2 mi SSW 5.8 mph - N/A Rain Light Rain Showers
9:50 AM 55.4 °F 50.0 °F 82% 30.01 in 6.2 mi SW 11.5 mph - N/A Rain Light Rain Showers
10:20 AM 55.4 °F 50.0 °F 82% 30.01 in 6.2 mi SSW 8.1 mph - N/A Rain Light Rain Showers
10:50 AM 57.2 °F 51.8 °F 82% 29.98 in 6.2 mi South 6.9 mph - N/A Rain Light Rain Showers
11:20 AM 57.2 °F 50.0 °F 77% 29.98 in 6.2 mi South 4.6 mph - N/A Rain Light Rain Showers
11:50 AM 57.2 °F 50.0 °F 77% 29.95 in 6.2 mi SSW 8.1 mph - N/A Rain Light Rain Showers
12:20 PM 57.2 °F 50.0 °F 77% 29.95 in 6.2 mi South 8.1 mph - N/A Rain Light Rain Showers
12:50 PM 57.2 °F 51.8 °F 82% 29.92 in 6.2 mi South 8.1 mph - N/A Rain Light Rain Showers
1:20 PM 57.2 °F 51.8 °F 82% 29.92 in 6.2 mi SSE 6.9 mph - N/A Rain Light Rain Showers
1:50 PM 57.2 °F 53.6 °F 88% 29.89 in 6.2 mi SSE 6.9 mph - N/A Rain Light Rain Showers
2:00 PM 58 °F 54 °F 84% 29.89 in 6 mi SSE 6.9 mph - - Rain Light Rain Showers
2:20 PM 57.2 °F 53.6 °F 88% 29.89 in 6.2 mi South 12.7 mph - N/A Rain Light Rain Showers
2:50 PM 55.4 °F 51.8 °F 88% 29.89 in 3.7 mi SSW 15.0 mph - N/A Rain Light Rain Showers
3:20 PM 57.2 °F 51.8 °F 82% 29.89 in 3.7 mi South 11.5 mph - N/A Rain Light Rain Showers
3:50 PM 55.4 °F 53.6 °F 94% 29.89 in 2.5 mi SSW 13.8 mph - N/A Rain , Thunderstorm Thunderstorms and Rain
4:20 PM 57.2 °F 51.8 °F 82% 29.89 in 2.5 mi South 16.1 mph - N/A Rain , Thunderstorm Thunderstorms and Rain
4:50 PM 57.2 °F 51.8 °F 82% 29.86 in 3.7 mi SSE 18.4 mph 33.4 mph N/A Rain , Thunderstorm Light Thunderstorms and Rain
5:20 PM 59.0 °F 51.8 °F 77% 29.89 in 3.7 mi SSE 20.7 mph 33.4 mph N/A Rain , Thunderstorm Light Thunderstorms and Rain
5:50 PM 59.0 °F 51.8 °F 77% 29.89 in 3.7 mi SE 18.4 mph 29.9 mph N/A Rain , Thunderstorm Light Thunderstorms and Rain
6:20 PM 59.0 °F 50.0 °F 72% 29.89 in 3.7 mi SE 23.0 mph 38.0 mph N/A Rain , Thunderstorm Light Thunderstorms and Rain
6:50 PM 59.0 °F 50.0 °F 72% 29.89 in 6.2 mi SE 23.0 mph 38.0 mph N/A Rain , Thunderstorm Light Thunderstorms and Rain
7:20 PM 59.0 °F 50.0 °F 72% 29.86 in 6.2 mi SE 25.3 mph 40.3 mph N/A Rain , Thunderstorm Light Thunderstorms and Rain
7:50 PM 57.2 °F 50.0 °F 77% 29.89 in 3.7 mi SE 21.9 mph 33.4 mph N/A Rain , Thunderstorm Light Thunderstorms and Rain
8:00 PM 57 °F 51 °F 73% 29.88 in 4 mi SE 21.9 mph - - Rain , Thunderstorm Thunderstorms and Rain
8:20 PM 59.0 °F 50.0 °F 72% 29.89 in 6.2 mi SSE 23.0 mph 39.1 mph N/A   Mostly Cloudy
8:50 PM 59.0 °F 50.0 °F 72% 29.86 in 6.2 mi SE 24.2 mph 36.8 mph N/A Rain , Thunderstorm Light Thunderstorms and Rain
9:20 PM 59.0 °F 50.0 °F 72% 29.86 in 6.2 mi SSE 26.5 mph 39.1 mph N/A Rain , Thunderstorm Light Thunderstorms and Rain
9:50 PM 57.2 °F 50.0 °F 77% 29.86 in 6.2 mi SE 24.2 mph 36.8 mph N/A Rain , Thunderstorm Light Thunderstorms and Rain
10:20 PM 57.2 °F 50.0 °F 77% 29.83 in 6.2 mi SE 25.3 mph 38.0 mph N/A Rain , Thunderstorm Light Thunderstorms and Rain
10:50 PM 59.0 °F 51.8 °F 77% 29.83 in 6.2 mi SE 26.5 mph 39.1 mph N/A Rain , Thunderstorm Light Thunderstorms and Rain
11:20 PM 59.0 °F 50.0 °F 72% 29.80 in 6.2 mi SE 26.5 mph 39.1 mph N/A Rain , Thunderstorm Light Thunderstorms and Rain
11:50 PM 57.2 °F 50.0 °F 77% 29.80 in 6.2 mi SE 24.2 mph 43.7 mph N/A Rain , Thunderstorm Light Thunderstorms and Rain